[[{"header":{"parameterUnit":"m.s-1","parameterCategory":1,"la1":30.2991,"la2":30.254,"lo1":-89.0895,"lo2":-89.0444,"dy":0.0017,"dx":0.0017,"nx":28,"ny":28,"refTime":"2025-11-28T09:00:00:Z","depth":0,"parameterNumber":2,"parameterNumberName":"U-component_of_WINDS"},"data":[0,0,0,0,0,0,0,0,0,0,0,0,0,0,0,0,0,0,0,0,0,0,0,0,0,0,0,0,0,0,0,0,0,0,0,0,0,0,0,0,0,0,0,0,0,0,0,0,0,0,0,0,0,0,0,0,0,0,-7.4058,-7.4059,0,-7.4161,-7.4163,-7.4164,-7.4028,-7.4023,-7.4018,-7.4014,-7.4118,-7.4125,-7.4132,0,0,0,0,0,0,0,0,0,0,0,0,0,-7.374,-7.3746,-7.4058,-7.4059,-7.406,-7.4161,-7.4163,-7.4164,-7.4029,-7.4023,-7.4017,-7.4011,-7.4115,-7.4124,-7.4133,0,0,0,0,0,0,0,0,0,0,0,0,0,-7.3864,-7.3748,-7.4057,-7.4005,-7.4001,-7.4161,-7.4163,-7.4164,-7.403,-7.4023,-7.4015,-7.4009,-7.4113,-7.4123,-7.4134,-7.4349,0,0,-7.4168,-7.4173,0,0,0,0,0,0,0,0,-7.3857,-7.3876,-7.4011,-7.4009,-7.4005,-7.4074,-7.4088,-7.4226,-7.4032,-7.4019,-7.4014,-7.4005,-7.4109,-7.412,-7.4155,-7.4354,-7.4359,-7.4169,-7.4175,-7.418,-7.4183,0,0,0,0,0,0,0,-7.3849,-7.3871,-7.4098,-7.4014,-7.401,-7.3975,-7.3985,-7.4114,-7.4104,-7.402,-7.401,-7.4024,-7.4106,-7.4145,-7.4157,-7.436,-7.4168,-7.4178,-7.4185,-7.4189,-7.4736,-7.4744,0,0,0,0,0,0,-7.3847,-7.3864,-7.4095,-7.4102,-7.3912,-7.3987,-7.3998,-7.406,-7.4102,-7.4102,-7.4031,-7.4018,-7.413,-7.4144,-7.416,-7.4411,-7.418,-7.419,-7.4197,-7.4729,-7.4738,-7.4747,0,0,0,0,0,0,-7.384,-7.3869,-7.4091,-7.398,-7.4006,-7.4,-7.4071,-7.4065,-7.4104,-7.4111,-7.4108,-7.4073,-7.4125,-7.4145,-7.4302,-7.4413,-7.4195,-7.4205,-7.4719,-7.4732,-7.4743,-7.4917,0,0,0,0,0,0,-7.3832,-7.3867,-7.3949,-7.3983,-7.4013,-7.4233,-7.4078,-7.4073,-7.4124,-7.4108,-7.4149,-7.4149,-7.4121,-7.4287,-7.4313,-7.4424,-7.4214,-7.4709,-7.4725,-7.4739,-7.4901,-7.4933,-7.4961,0,0,0,0,0,-7.3821,-7.3995,-7.3954,-7.3983,-7.4116,-7.424,-7.4256,-7.422,-7.4134,-7.4215,-7.4219,-7.4148,-7.4398,-7.4304,-7.4333,-7.4448,-7.4702,-7.472,-7.4738,-7.4888,-7.4927,-7.496,0,0,0,0,0,0,-7.3973,-7.3998,-7.3954,-7.4144,-7.4191,-7.4217,-7.4318,-7.4264,-7.4336,-7.4318,-7.427,-7.4281,-7.4448,-7.4465,-7.436,-7.4657,-7.4535,-7.456,-7.4639,-7.4677,-7.4706,-7.4696,-7.4223,0,0,0,0,0,-7.403,-7.4129,-7.4145,-7.4311,-7.4337,-7.4325,-7.4377,-7.4346,-7.4392,-7.4411,-7.4426,-7.4473,-7.4561,-7.4621,-7.4703,-7.4905,-7.4909,-7.4998,-7.5028,-7.5052,-7.5073,-7.5176,-7.5215,-7.4805,-7.4805,-7.4805,0,0,-7.4145,-7.4171,-7.4237,-7.4343,-7.4375,-7.4477,-7.4342,-7.4457,-7.4531,-7.4428,-7.4576,-7.459,-7.4639,-7.4819,-7.4899,-7.4838,-7.5187,-7.5075,-7.5095,-7.5101,-7.5199,-7.5237,-7.5272,-7.4818,-7.4815,-7.4813,0,0,-7.4408,-7.444,-7.4579,-7.4615,-7.4666,-7.4656,-7.4691,-7.4725,-7.473,-7.4879,-7.4802,-7.4891,-7.5046,-7.5082,-7.5122,-7.5399,-7.5334,-7.5428,-7.5581,-7.5683,-7.5715,-7.5743,-7.5837,-7.5872,-7.5449,-7.5449,-7.5449,0,-7.4545,-7.4697,-7.4658,-7.4778,-7.4825,-7.4738,-7.4877,-7.4914,-7.4989,-7.5023,-7.4955,-7.5145,-7.5173,-7.5357,-7.5425,-7.5462,-7.5496,-7.542,-7.5714,-7.5742,-7.5767,-7.5856,-7.5893,-7.546,-7.5458,-7.5457,-7.5456,0,-7.486,-7.4967,-7.5074,-7.5148,-7.5209,-7.5338,-7.5318,-7.5383,-7.5347,-7.5345,-7.5496,-7.5526,-7.5611,-7.5654,-7.5621,-7.5834,-7.5794,-7.5722,-7.5596,-7.5817,-7.59,-7.5934,-7.5475,-7.5471,-7.5468,-7.5465,0,0,-7.5218,-7.5271,-7.531,-7.5341,-7.5392,-7.5472,-7.5598,-7.5681,-7.5736,-7.5792,-7.5893,-7.6027,-7.5958,-7.6003,-7.5973,-7.6064,-7.6276,-7.5979,-7.5979,-7.6028,-7.6508,-7.6558,-7.6599,-7.6236,-7.6242,-7.6247,-7.6502,0,-7.5477,-7.5692,-7.5661,-7.5868,-7.5964,-7.5883,-7.5992,-7.6034,-7.6035,-7.6116,-7.6117,-7.621,-7.6116,-7.6142,-7.6228,-7.6232,-7.637,-7.6214,-7.6325,-7.633,-7.631,-7.6643,-7.6697,-7.6936,-7.6535,-7.654,-7.6544,0,-7.5806,-7.5873,-7.609,-7.6123,-7.6162,-7.626,-7.6332,-7.6412,-7.6458,-7.6452,-7.6502,-7.6456,-7.6579,-7.6457,-7.6624,-7.6518,-7.6563,-7.6572,-7.658,-7.6584,-7.6446,-7.6651,-7.7012,-7.7046,-7.6596,-7.6592,-7.6588,0,-7.6039,-7.6184,-7.6331,-7.6361,-7.6405,-7.6475,-7.6497,-7.6535,-7.6587,-7.6651,-7.6683,-7.6762,-7.6803,-7.6865,-7.684,-7.6754,-7.7011,-7.6887,-7.7006,-7.7007,-7.7059,-7.7055,-7.7426,-7.7098,-7.7097,-7.7097,-7.7096,0,-7.6327,-7.6462,-7.6435,-7.6525,-7.6673,-7.6637,-7.6783,-7.6795,-7.683,-7.6919,-7.6856,-7.6941,-7.6906,-7.6989,-7.6972,-7.711,-7.7131,-7.7127,-7.712,-7.713,-7.713,-7.7154,-7.7135,-7.7106,-7.7104,-7.7102,-7.7101,0,-7.661,-7.6599,-7.6752,-7.6782,-7.6792,-7.6899,-7.6923,-7.7007,-7.7004,-7.7118,-7.7143,-7.7138,-7.7232,-7.7215,-7.732,-7.7307,-7.7479,-7.7454,-7.7463,-7.7455,-7.7574,-7.7561,-7.7969,-7.8019,-7.7664,-7.7667,-7.767,0,-7.6792,-7.6893,-7.6933,-7.6988,-7.7015,-7.7106,-7.7158,-7.7127,-7.7183,-7.7242,-7.7318,-7.7407,-7.7475,-7.7629,-7.7634,-7.7713,-7.7686,-7.7824,-7.7697,-7.7703,-7.7682,-7.7674,-7.7681,-7.7847,-7.7851,-7.7855,-7.7857,0,-7.7114,-7.7103,-7.7181,-7.7257,-7.7321,-7.738,-7.7432,-7.7481,-7.7454,-7.7521,-7.7616,-7.7669,-7.7775,-7.7863,-7.7936,-7.7957,-7.7902,-7.7898,-7.7929,-7.7937,-7.7936,-7.7933,-7.7526,-7.7887,-7.7884,-7.7882,-7.7881,-7.7879,-7.7348,-7.7432,-7.7473,-7.7561,-7.7598,-7.7648,-7.7726,-7.7734,-7.7813,-7.7896,-7.7874,-7.7981,-7.8023,-7.8116,-7.8145,-7.8228,-7.8176,-7.8222,-7.8232,-7.8243,-7.8254,-7.7928,-7.8242,-7.8241,-7.824,-7.8239,-7.8239,0,-7.7662,-7.7684,-7.7766,-7.7841,-7.791,-7.7855,-7.7909,-7.797,-7.8065,-7.8109,-7.8178,-7.8287,-7.8371,-7.8384,-7.8464,-7.8527,-7.8504,-7.8549,-7.854,-7.8545,-7.8299,-7.8262,-7.8566,-7.8566,-7.8566,-7.8566,-7.8566,-7.8565,-7.7833,-7.7972,-7.7966,-7.8122,-7.8143,-7.8248,-7.8283,-7.8328,-7.8363,-7.8486,-7.8556,-7.8565,-7.8596,-7.8677,-7.8751,-7.8753,-7.8783,-7.8837,-7.8828,-7.8596,-7.8563,-7.8532,-7.8496,-7.8845,-7.8845,-7.9067,-7.9069,-7.907]},{"header":{"parameterUnit":"m.s-1","parameterCategory":1,"la1":30.2991,"la2":30.254,"lo1":-89.0895,"lo2":-89.0444,"dy":0.0017,"dx":0.0017,"nx":28,"ny":28,"refTime":"2025-11-28T09:00:00:Z","depth":0,"parameterNumber":3,"parameterNumberName":"V-component_of_WINDS"},"data":[0,0,0,0,0,0,0,0,0,0,0,0,0,0,0,0,0,0,0,0,0,0,0,0,0,0,0,0,0,0,0,0,0,0,0,0,0,0,0,0,0,0,0,0,0,0,0,0,0,0,0,0,0,0,0,0,0,0,1.8885,1.8884,0,1.8834,1.8834,1.8833,1.868,1.8677,1.8673,1.867,1.8623,1.8624,1.8626,0,0,0,0,0,0,0,0,0,0,0,0,0,1.8853,1.8854,1.8885,1.8884,1.8884,1.8835,1.8834,1.8833,1.868,1.8676,1.8672,1.8668,1.8622,1.8624,1.8626,0,0,0,0,0,0,0,0,0,0,0,0,0,1.8841,1.8855,1.8885,1.8801,1.8793,1.8835,1.8834,1.8833,1.8681,1.8676,1.8671,1.8666,1.8621,1.8624,1.8627,1.8746,0,0,1.8636,1.8637,0,0,0,0,0,0,0,0,1.8842,1.8843,1.8814,1.8807,1.8798,1.8758,1.8805,1.8804,1.8683,1.8724,1.867,1.8664,1.8672,1.867,1.8672,1.8744,1.8742,1.8636,1.8637,1.8639,1.864,0,0,0,0,0,0,0,1.8843,1.8844,1.8865,1.8814,1.8804,1.8768,1.876,1.8804,1.8727,1.872,1.8709,1.8705,1.8667,1.867,1.867,1.8741,1.8636,1.8638,1.864,1.8641,1.8909,1.8914,0,0,0,0,0,0,1.8855,1.8846,1.8867,1.8863,1.8808,1.8773,1.8764,1.8776,1.8726,1.8714,1.8709,1.8698,1.8668,1.8667,1.8668,1.8804,1.8639,1.8641,1.8643,1.8904,1.891,1.8916,0,0,0,0,0,0,1.8855,1.8859,1.8869,1.8851,1.885,1.8778,1.8793,1.8778,1.8781,1.8718,1.8704,1.8726,1.8663,1.8664,1.8728,1.8801,1.8643,1.8645,1.8897,1.8906,1.8913,1.9079,0,0,0,0,0,0,1.8855,1.886,1.8903,1.8854,1.8851,1.8929,1.8798,1.8781,1.8786,1.877,1.873,1.8719,1.866,1.8724,1.8731,1.8802,1.8647,1.889,1.8901,1.891,1.9067,1.9092,1.9113,0,0,0,0,0,1.8854,1.8953,1.8906,1.891,1.8904,1.8933,1.8932,1.886,1.8792,1.8836,1.8796,1.872,1.8792,1.8732,1.8738,1.8811,1.8885,1.8898,1.891,1.9056,1.9087,1.9113,0,0,0,0,0,0,1.9015,1.8945,1.8892,1.8977,1.8962,1.8907,1.896,1.8895,1.89,1.8886,1.8798,1.879,1.8867,1.8845,1.878,1.8924,1.8826,1.884,1.8936,1.8964,1.8987,1.8991,1.865,0,0,0,0,0,1.906,1.9087,1.9025,1.9107,1.9101,1.9033,1.9043,1.8989,1.897,1.8963,1.8927,1.8913,1.8932,1.8947,1.8961,1.9063,1.9052,1.9116,1.9139,1.9159,1.9172,1.9225,1.9253,1.8956,1.8956,1.8955,0,0,1.9154,1.9119,1.9142,1.9138,1.912,1.9152,1.9028,1.9067,1.9091,1.8969,1.9027,1.9001,1.8979,1.9063,1.9098,1.9047,1.9252,1.9174,1.919,1.9193,1.9241,1.9269,1.9294,1.8964,1.8963,1.8961,0,0,1.934,1.9317,1.9382,1.9366,1.9339,1.9293,1.9309,1.9263,1.9241,1.9297,1.9207,1.9234,1.9269,1.9257,1.9256,1.9439,1.937,1.9447,1.9569,1.9621,1.9645,1.9665,1.9731,1.9756,1.946,1.946,1.9461,0,1.9461,1.9504,1.9424,1.9469,1.947,1.936,1.9426,1.9415,1.9396,1.94,1.9343,1.9384,1.9362,1.9442,1.9486,1.9489,1.9505,1.9451,1.9647,1.9667,1.9685,1.9747,1.9772,1.947,1.9469,1.9468,1.9467,0,1.9653,1.9685,1.9741,1.9723,1.9731,1.9787,1.9716,1.9734,1.9679,1.964,1.9699,1.9669,1.9675,1.969,1.9638,1.9763,1.9732,1.9663,1.9562,1.9724,1.9781,1.9804,1.9483,1.948,1.9477,1.9475,0,0,1.994,1.9877,1.9899,1.989,1.9853,1.9876,1.9927,1.9932,1.9949,1.994,1.9981,2.0013,1.9949,1.9948,1.9893,1.994,2.0088,1.9864,1.9863,1.9908,2.0225,2.0277,2.0306,2.0042,2.0046,2.0049,2.0227,0,2.0118,2.0199,2.0129,2.0225,2.0254,2.015,2.0194,2.0178,2.0142,2.0162,2.0123,2.0147,2.006,2.0059,2.01,2.0061,2.015,2.0047,2.0081,2.0083,2.009,2.0336,2.0391,2.056,2.0248,2.0252,2.0255,0,2.0336,2.0335,2.0433,2.039,2.0399,2.044,2.0439,2.0459,2.0438,2.0409,2.0408,2.0341,2.039,2.0291,2.0358,2.0289,2.0299,2.0282,2.0287,2.0288,2.0179,2.0344,2.0612,2.0638,2.0289,2.0286,2.0284,0,2.0536,2.0559,2.0621,2.0616,2.0567,2.0598,2.058,2.0553,2.0561,2.0561,2.0565,2.0571,2.0575,2.0582,2.0519,2.0453,2.0594,2.049,2.0572,2.0574,2.0607,2.0606,2.0882,2.0613,2.0612,2.0612,2.0611,0,2.0742,2.0806,2.071,2.0748,2.0818,2.0737,2.0809,2.0779,2.0757,2.0789,2.07,2.0732,2.0647,2.0671,2.0622,2.0685,2.0687,2.0666,2.0652,2.0674,2.0677,2.068,2.0667,2.0619,2.0617,2.0616,2.0615,0,2.0977,2.0915,2.0976,2.0924,2.0912,2.0966,2.0922,2.0956,2.0915,2.0956,2.0961,2.0897,2.092,2.0858,2.0872,2.0839,2.093,2.0898,2.0937,2.0928,2.1014,2.1007,2.1301,2.1336,2.1045,2.1048,2.105,0,2.1113,2.116,2.1113,2.1127,2.1112,2.1136,2.1143,2.1066,2.1077,2.1057,2.1094,2.1109,2.1118,2.116,2.1116,2.1127,2.1094,2.1196,2.1095,2.1116,2.1096,2.1094,2.1099,2.1218,2.1221,2.1224,2.1226,0,2.136,2.1327,2.1339,2.1342,2.1352,2.1351,2.1343,2.136,2.1277,2.1295,2.1316,2.1323,2.1337,2.1354,2.1355,2.1337,2.127,2.1258,2.1278,2.1301,2.1322,2.1313,2.0995,2.1252,2.125,2.1248,2.1246,2.1245,2.155,2.1587,2.156,2.1577,2.1562,2.1557,2.1587,2.1548,2.1565,2.1569,2.1523,2.1555,2.1534,2.1527,2.1517,2.1542,2.1495,2.1524,2.1531,2.1539,2.1554,2.1318,2.1542,2.1541,2.154,2.1539,2.1539,0,2.1793,2.177,2.1787,2.1778,2.1792,2.1725,2.1713,2.1729,2.1758,2.1743,2.1753,2.1779,2.1795,2.1752,2.1762,2.1791,2.176,2.1796,2.1794,2.1791,2.1595,2.1577,2.1821,2.1821,2.1821,2.1821,2.1821,2.1821,2.1922,2.1981,2.1945,2.1996,2.1973,2.2002,2.2002,2.1997,2.1985,2.2017,2.203,2.2001,2.1975,2.1983,2.1995,2.1982,2.1991,2.2038,2.2015,2.1832,2.1805,2.1779,2.1761,2.204,2.2041,2.2209,2.221,2.2211]}]]